Time,TemperatureF,DewpointF,PressureIn,WindDirection,WindDirectionDegrees,WindSpeedMPH,WindSpeedGustMPH,Humidity,HourlyPrecipIn,Conditions,Clouds,dailyrainin,SoftwareType,DateUTC
2013-08-14 00:02:00,54.0,26.1,30.24,West,270,0.7,1.1,34,0.00,,,0.00,WUHU216HW,2013-08-14 07:02:00,
2013-08-14 00:07:00,53.8,25.9,30.24,West,270,0.0,1.1,34,0.00,,,0.00,WUHU216HW,2013-08-14 07:07:00,
2013-08-14 00:12:00,53.6,26.5,30.24,West,270,0.9,1.1,35,0.00,,,0.00,WUHU216HW,2013-08-14 07:12:00,
2013-08-14 00:17:00,53.6,26.5,30.24,West,270,1.3,1.6,35,0.00,,,0.00,WUHU216HW,2013-08-14 07:17:00,
2013-08-14 00:22:00,53.3,26.8,30.24,West,270,1.1,1.6,36,0.00,,,0.00,WUHU216HW,2013-08-14 07:22:00,
2013-08-14 00:27:00,53.1,26.6,30.24,West,270,1.3,1.6,36,0.00,,,0.00,WUHU216HW,2013-08-14 07:27:00,
2013-08-14 00:32:00,53.1,26.6,30.24,West,270,0.7,1.6,36,0.00,,,0.00,WUHU216HW,2013-08-14 07:32:00,
2013-08-14 00:37:00,52.9,26.5,30.23,West,270,1.1,1.6,36,0.00,,,0.00,WUHU216HW,2013-08-14 07:37:00,
2013-08-14 00:42:00,52.9,26.5,30.23,West,270,1.1,1.6,36,0.00,,,0.00,WUHU216HW,2013-08-14 07:42:00,
2013-08-14 00:47:00,52.7,26.4,30.23,West,270,1.6,1.6,36,0.00,,,0.00,WUHU216HW,2013-08-14 07:47:00,
2013-08-14 00:52:00,52.4,26.0,30.23,WSW,248,1.8,1.8,36,0.00,,,0.00,WUHU216HW,2013-08-14 07:52:00,
2013-08-14 00:57:00,52.2,25.8,30.23,West,270,1.6,1.8,36,0.00,,,0.00,WUHU216HW,2013-08-14 07:57:00,
2013-08-14 01:02:00,52.0,26.4,30.23,WSW,248,1.6,1.8,37,0.00,,,0.00,WUHU216HW,2013-08-14 08:02:00,
2013-08-14 01:07:00,52.0,26.4,30.23,WSW,248,0.7,1.8,37,0.00,,,0.00,WUHU216HW,2013-08-14 08:07:00,
2013-08-14 01:12:00,52.0,25.7,30.23,West,270,1.8,1.8,36,0.00,,,0.00,WUHU216HW,2013-08-14 08:12:00,
2013-08-14 01:17:00,52.0,25.7,30.23,WSW,248,1.6,1.8,36,0.00,,,0.00,WUHU216HW,2013-08-14 08:17:00,
2013-08-14 01:22:00,52.0,25.7,30.23,WSW,248,1.6,1.8,36,0.00,,,0.00,WUHU216HW,2013-08-14 08:22:00,
2013-08-14 01:27:00,52.0,25.7,30.23,WSW,248,2.5,2.5,36,0.00,,,0.00,WUHU216HW,2013-08-14 08:27:00,
2013-08-14 01:32:00,52.0,25.0,30.23,WSW,248,2.5,2.5,35,0.00,,,0.00,WUHU216HW,2013-08-14 08:32:00,
2013-08-14 01:37:00,51.8,24.1,30.23,SW,225,2.7,3.4,34,0.00,,,0.00,WUHU216HW,2013-08-14 08:37:00,
2013-08-14 01:42:00,51.8,24.1,30.23,WSW,248,2.0,3.4,34,0.00,,,0.00,WUHU216HW,2013-08-14 08:42:00,
2013-08-14 01:47:00,51.8,23.5,30.23,WSW,248,1.6,3.1,33,0.00,,,0.00,WUHU216HW,2013-08-14 08:47:00,
2013-08-14 01:52:00,51.7,23.3,30.23,West,270,1.8,2.5,33,0.00,,,0.00,WUHU216HW,2013-08-14 08:52:00,
2013-08-14 01:57:00,51.7,23.3,30.23,West,270,1.1,2.2,33,0.00,,,0.00,WUHU216HW,2013-08-14 08:57:00,
2013-08-14 02:02:00,51.5,23.1,30.23,West,270,1.3,1.8,33,0.00,,,0.00,WUHU216HW,2013-08-14 09:02:00,
2013-08-14 02:07:00,51.5,23.1,30.23,WSW,248,1.6,1.8,33,0.00,,,0.00,WUHU216HW,2013-08-14 09:07:00,
2013-08-14 02:12:00,51.3,23.0,30.22,WSW,248,1.6,1.8,33,0.00,,,0.00,WUHU216HW,2013-08-14 09:12:00,
2013-08-14 02:17:00,51.3,22.3,30.22,WSW,248,1.3,1.8,32,0.00,,,0.00,WUHU216HW,2013-08-14 09:17:00,
2013-08-14 02:22:00,51.1,22.1,30.22,WSW,248,1.3,1.6,32,0.00,,,0.00,WUHU216HW,2013-08-14 09:22:00,
2013-08-14 02:27:00,51.1,22.1,30.22,WSW,248,0.9,1.6,32,0.00,,,0.00,WUHU216HW,2013-08-14 09:27:00,
2013-08-14 02:32:00,51.1,22.1,30.22,WSW,248,1.1,1.3,32,0.00,,,0.00,WUHU216HW,2013-08-14 09:32:00,
2013-08-14 02:37:00,51.1,22.1,30.22,WSW,248,1.1,1.3,32,0.00,,,0.00,WUHU216HW,2013-08-14 09:37:00,
2013-08-14 02:42:00,51.1,22.1,30.22,WSW,248,1.1,1.3,32,0.00,,,0.00,WUHU216HW,2013-08-14 09:42:00,
2013-08-14 02:47:00,51.1,22.1,30.22,WSW,248,1.1,1.3,32,0.00,,,0.00,WUHU216HW,2013-08-14 09:47:00,
2013-08-14 02:52:00,51.1,22.1,30.22,WSW,248,1.6,1.6,32,0.00,,,0.00,WUHU216HW,2013-08-14 09:52:00,
2013-08-14 02:57:00,50.9,22.0,30.22,WSW,248,1.3,1.6,32,0.00,,,0.00,WUHU216HW,2013-08-14 09:57:00,
2013-08-14 03:02:00,50.9,22.0,30.22,WSW,248,1.6,1.8,32,0.00,,,0.00,WUHU216HW,2013-08-14 10:02:00,
2013-08-14 03:07:00,50.8,21.8,30.22,WSW,248,1.1,1.8,32,0.00,,,0.00,WUHU216HW,2013-08-14 10:07:00,
2013-08-14 03:12:00,50.8,21.8,30.22,WSW,248,1.6,1.8,32,0.00,,,0.00,WUHU216HW,2013-08-14 10:12:00,
2013-08-14 03:17:00,50.8,22.5,30.22,WSW,248,1.8,2.2,33,0.00,,,0.00,WUHU216HW,2013-08-14 10:17:00,
2013-08-14 03:22:00,50.8,21.8,30.22,WSW,248,1.8,2.5,32,0.00,,,0.00,WUHU216HW,2013-08-14 10:22:00,
2013-08-14 03:27:00,50.6,21.7,30.22,WSW,248,1.6,3.1,32,0.00,,,0.00,WUHU216HW,2013-08-14 10:27:00,
2013-08-14 03:32:00,50.4,22.1,30.22,West,270,1.6,3.1,33,0.00,,,0.00,WUHU216HW,2013-08-14 10:32:00,
2013-08-14 03:37:00,50.4,21.5,30.22,WSW,248,1.8,2.5,32,0.00,,,0.00,WUHU216HW,2013-08-14 10:37:00,
2013-08-14 03:42:00,50.4,21.5,30.22,WSW,248,1.8,1.8,32,0.00,,,0.00,WUHU216HW,2013-08-14 10:42:00,
2013-08-14 03:47:00,50.4,21.5,30.22,WSW,248,1.1,1.8,32,0.00,,,0.00,WUHU216HW,2013-08-14 10:47:00,
2013-08-14 03:52:00,50.4,21.5,30.22,West,270,1.1,1.8,32,0.00,,,0.00,WUHU216HW,2013-08-14 10:52:00,
2013-08-14 03:57:00,50.2,21.3,30.22,West,270,1.8,2.0,32,0.00,,,0.00,WUHU216HW,2013-08-14 10:57:00,
2013-08-14 04:02:00,50.2,21.3,30.22,West,270,1.8,2.0,32,0.00,,,0.00,WUHU216HW,2013-08-14 11:02:00,
2013-08-14 04:07:00,50.2,21.3,30.21,West,270,1.1,1.8,32,0.00,,,0.00,WUHU216HW,2013-08-14 11:07:00,
2013-08-14 04:12:00,50.0,21.2,30.21,West,270,1.1,1.8,32,0.00,,,0.00,WUHU216HW,2013-08-14 11:12:00,
2013-08-14 04:17:00,50.0,21.2,30.21,West,270,1.8,1.8,32,0.00,,,0.00,WUHU216HW,2013-08-14 11:17:00,
2013-08-14 04:22:00,50.0,21.2,30.21,WNW,293,1.1,1.8,32,0.00,,,0.00,WUHU216HW,2013-08-14 11:22:00,
2013-08-14 04:28:00,50.0,21.2,30.21,West,270,1.6,1.8,32,0.00,,,0.00,WUHU216HW,2013-08-14 11:28:00,
2013-08-14 04:33:00,50.0,21.2,30.21,West,270,1.1,2.0,32,0.00,,,0.00,WUHU216HW,2013-08-14 11:33:00,
2013-08-14 04:38:00,50.0,21.2,30.21,WSW,248,1.1,2.0,32,0.00,,,0.00,WUHU216HW,2013-08-14 11:38:00,
2013-08-14 04:42:00,50.0,21.2,30.21,West,270,0.9,1.6,32,0.00,,,0.00,WUHU216HW,2013-08-14 11:42:00,
2013-08-14 04:47:00,50.0,21.2,30.21,West,270,0.9,1.8,32,0.00,,,0.00,WUHU216HW,2013-08-14 11:47:00,
2013-08-14 04:52:00,49.9,21.1,30.21,WSW,248,1.1,1.8,32,0.00,,,0.00,WUHU216HW,2013-08-14 11:52:00,
2013-08-14 04:57:00,49.9,21.1,30.21,WSW,248,1.6,1.8,32,0.00,,,0.00,WUHU216HW,2013-08-14 11:57:00,
2013-08-14 05:02:00,49.7,20.9,30.21,WSW,248,1.1,1.8,32,0.00,,,0.00,WUHU216HW,2013-08-14 12:02:00,
2013-08-14 05:07:00,49.7,20.9,30.21,WSW,248,1.1,1.3,32,0.00,,,0.00,WUHU216HW,2013-08-14 12:07:00,
2013-08-14 05:12:00,49.7,20.9,30.21,WSW,248,1.1,1.6,32,0.00,,,0.00,WUHU216HW,2013-08-14 12:12:00,
2013-08-14 05:17:00,49.5,20.7,30.21,WSW,248,1.1,1.6,32,0.00,,,0.00,WUHU216HW,2013-08-14 12:17:00,
2013-08-14 05:22:00,49.5,21.4,30.21,WSW,248,1.1,1.1,33,0.00,,,0.00,WUHU216HW,2013-08-14 12:22:00,
2013-08-14 05:27:00,49.5,21.4,30.21,WSW,248,1.6,1.6,33,0.00,,,0.00,WUHU216HW,2013-08-14 12:27:00,
2013-08-14 05:32:00,49.5,21.4,30.22,WSW,248,1.3,1.8,33,0.00,,,0.00,WUHU216HW,2013-08-14 12:32:00,
2013-08-14 05:37:00,49.3,21.2,30.22,WSW,248,1.3,1.8,33,0.00,,,0.00,WUHU216HW,2013-08-14 12:37:00,
2013-08-14 05:42:00,49.3,21.2,30.22,WSW,248,1.8,1.8,33,0.00,,,0.00,WUHU216HW,2013-08-14 12:42:00,
2013-08-14 05:47:00,49.3,21.2,30.22,WSW,248,1.6,1.8,33,0.00,,,0.00,WUHU216HW,2013-08-14 12:47:00,
2013-08-14 05:52:00,49.1,21.1,30.22,WSW,248,1.3,1.8,33,0.00,,,0.00,WUHU216HW,2013-08-14 12:52:00,
2013-08-14 05:57:00,49.1,21.1,30.22,WSW,248,1.8,2.5,33,0.00,,,0.00,WUHU216HW,2013-08-14 12:57:00,
2013-08-14 06:02:00,49.0,21.0,30.22,WSW,248,1.6,2.5,33,0.00,,,0.00,WUHU216HW,2013-08-14 13:02:00,
2013-08-14 06:07:00,49.0,21.6,30.22,WSW,248,1.3,2.2,34,0.00,,,0.00,WUHU216HW,2013-08-14 13:07:00,
2013-08-14 06:12:00,49.0,21.6,30.22,WSW,248,1.8,2.5,34,0.00,,,0.00,WUHU216HW,2013-08-14 13:12:00,
2013-08-14 06:17:00,49.0,21.6,30.23,WSW,248,2.5,2.5,34,0.00,,,0.00,WUHU216HW,2013-08-14 13:17:00,
2013-08-14 06:22:00,48.8,21.5,30.23,WSW,248,1.3,2.5,34,0.00,,,0.00,WUHU216HW,2013-08-14 13:22:00,
2013-08-14 06:27:00,49.0,21.6,30.23,WSW,248,1.3,2.2,34,0.00,,,0.00,WUHU216HW,2013-08-14 13:27:00,
2013-08-14 06:32:00,49.0,21.6,30.23,WSW,248,2.0,2.5,34,0.00,,,0.00,WUHU216HW,2013-08-14 13:32:00,
2013-08-14 06:37:00,49.1,21.8,30.23,WSW,248,1.8,2.5,34,0.00,,,0.00,WUHU216HW,2013-08-14 13:37:00,
2013-08-14 06:42:00,49.3,22.0,30.23,WSW,248,1.1,2.0,34,0.00,,,0.00,WUHU216HW,2013-08-14 13:42:00,
2013-08-14 06:47:00,50.0,23.2,30.23,WSW,248,0.0,2.0,35,0.00,,,0.00,WUHU216HW,2013-08-14 13:47:00,
2013-08-14 06:52:00,50.9,24.0,30.23,WSW,248,0.0,1.1,35,0.00,,,0.00,WUHU216HW,2013-08-14 13:52:00,
2013-08-14 06:57:00,51.8,24.8,30.23,WSW,248,0.0,0.0,35,0.00,,,0.00,WUHU216HW,2013-08-14 13:57:00,
2013-08-14 07:02:00,52.9,25.1,30.23,WSW,248,0.0,0.0,34,0.00,,,0.00,WUHU216HW,2013-08-14 14:02:00,
2013-08-14 07:07:00,54.2,26.2,30.23,WSW,248,0.0,0.0,34,0.00,,,0.00,WUHU216HW,2013-08-14 14:07:00,
2013-08-14 07:12:00,55.3,25.8,30.23,WSW,248,0.0,0.0,32,0.00,,,0.00,WUHU216HW,2013-08-14 14:12:00,
2013-08-14 07:17:00,55.8,26.2,30.23,WSW,248,0.0,0.0,32,0.00,,,0.00,WUHU216HW,2013-08-14 14:17:00,
2013-08-14 07:22:00,56.5,26.2,30.24,WSW,248,0.0,0.0,31,0.00,,,0.00,WUHU216HW,2013-08-14 14:22:00,
2013-08-14 07:27:00,56.9,26.5,30.24,East,90,0.4,0.9,31,0.00,,,0.00,WUHU216HW,2013-08-14 14:27:00,
2013-08-14 07:32:00,57.2,26.1,30.24,East,90,0.0,0.9,30,0.00,,,0.00,WUHU216HW,2013-08-14 14:32:00,
2013-08-14 07:37:00,57.8,26.6,30.24,East,90,0.2,0.9,30,0.00,,,0.00,WUHU216HW,2013-08-14 14:37:00,
2013-08-14 07:42:00,58.5,26.3,30.24,East,90,0.0,0.7,29,0.00,,,0.00,WUHU216HW,2013-08-14 14:42:00,
2013-08-14 07:47:00,58.9,26.6,30.24,East,90,0.2,0.7,29,0.00,,,0.00,WUHU216HW,2013-08-14 14:47:00,
2013-08-14 07:52:00,59.2,26.9,30.24,ENE,68,0.4,1.3,29,0.00,,,0.00,WUHU216HW,2013-08-14 14:52:00,
2013-08-14 07:57:00,59.8,26.4,30.24,ENE,68,0.4,1.3,28,0.00,,,0.00,WUHU216HW,2013-08-14 14:57:00,
2013-08-14 08:02:00,60.5,27.9,30.24,East,90,1.3,2.0,29,0.00,,,0.00,WUHU216HW,2013-08-14 15:02:00,
2013-08-14 08:07:00,61.4,28.7,30.24,East,90,0.7,2.0,29,0.00,,,0.00,WUHU216HW,2013-08-14 15:07:00,
2013-08-14 08:12:00,62.1,28.4,30.24,East,90,1.8,1.8,28,0.00,,,0.00,WUHU216HW,2013-08-14 15:12:00,
2013-08-14 08:17:00,63.0,29.2,30.24,ESE,113,1.1,2.0,28,0.00,,,0.00,WUHU216HW,2013-08-14 15:17:00,
2013-08-14 08:22:00,63.9,29.0,30.24,ESE,113,2.9,2.9,27,0.00,,,0.00,WUHU216HW,2013-08-14 15:22:00,
2013-08-14 08:27:00,64.8,30.8,30.24,NE,45,1.1,2.9,28,0.00,,,0.00,WUHU216HW,2013-08-14 15:27:00,
2013-08-14 08:32:00,65.7,29.5,30.24,ENE,68,0.9,2.5,26,0.00,,,0.00,WUHU216HW,2013-08-14 15:32:00,
2013-08-14 08:37:00,66.4,29.2,30.24,WSW,248,0.7,2.5,25,0.00,,,0.00,WUHU216HW,2013-08-14 15:37:00,
2013-08-14 08:42:00,67.0,28.6,30.24,North,0,1.8,2.5,24,0.00,,,0.00,WUHU216HW,2013-08-14 15:42:00,
2013-08-14 08:48:00,67.7,28.3,30.24,North,0,2.7,2.7,23,0.00,,,0.00,WUHU216HW,2013-08-14 15:48:00,
2013-08-14 08:54:00,68.4,27.8,30.24,NNW,338,2.5,4.0,22,0.00,,,0.00,WUHU216HW,2013-08-14 15:54:00,
2013-08-14 08:59:00,68.9,28.3,30.24,North,0,2.2,4.0,22,0.00,,,0.00,WUHU216HW,2013-08-14 15:59:00,
2013-08-14 09:04:00,69.5,28.7,30.24,West,270,4.0,9.2,22,0.00,,,0.00,WUHU216HW,2013-08-14 16:04:00,
2013-08-14 09:09:00,69.8,29.0,30.25,WSW,248,2.0,9.2,22,0.00,,,0.00,WUHU216HW,2013-08-14 16:09:00,
2013-08-14 09:14:00,70.4,29.4,30.25,North,0,2.5,8.1,22,0.00,,,0.00,WUHU216HW,2013-08-14 16:14:00,
2013-08-14 09:19:00,71.1,29.1,30.25,North,0,1.1,5.4,21,0.00,,,0.00,WUHU216HW,2013-08-14 16:19:00,
2013-08-14 09:24:00,71.5,29.4,30.24,NW,315,4.0,4.0,21,0.00,,,0.00,WUHU216HW,2013-08-14 16:24:00,
2013-08-14 09:29:00,71.8,27.0,30.24,North,0,5.4,5.4,19,0.00,,,0.00,WUHU216HW,2013-08-14 16:29:00,
2013-08-14 09:34:00,72.0,27.2,30.25,North,0,0.9,5.4,19,0.00,,,0.00,WUHU216HW,2013-08-14 16:34:00,
2013-08-14 09:39:00,72.2,27.3,30.25,NNW,338,0.9,5.4,19,0.00,,,0.00,WUHU216HW,2013-08-14 16:39:00,
2013-08-14 09:44:00,72.5,27.6,30.25,NNW,338,3.4,3.4,19,0.00,,,0.00,WUHU216HW,2013-08-14 16:44:00,
2013-08-14 09:49:00,72.4,27.5,30.25,NNE,23,2.2,6.0,19,0.00,,,0.00,WUHU216HW,2013-08-14 16:49:00,
2013-08-14 09:54:00,72.9,27.9,30.25,NNE,23,3.8,6.0,19,0.00,,,0.00,WUHU216HW,2013-08-14 16:54:00,
2013-08-14 09:59:00,72.9,27.9,30.25,North,0,1.1,4.0,19,0.00,,,0.00,WUHU216HW,2013-08-14 16:59:00,
2013-08-14 10:04:00,73.1,26.5,30.25,North,0,1.8,4.0,18,0.00,,,0.00,WUHU216HW,2013-08-14 17:04:00,
2013-08-14 10:09:00,73.3,26.7,30.25,NW,315,1.3,4.7,18,0.00,,,0.00,WUHU216HW,2013-08-14 17:09:00,
2013-08-14 10:14:00,73.4,26.8,30.25,ENE,68,0.9,4.7,18,0.00,,,0.00,WUHU216HW,2013-08-14 17:14:00,
2013-08-14 10:19:00,73.6,25.3,30.25,North,0,5.4,5.4,17,0.00,,,0.00,WUHU216HW,2013-08-14 17:19:00,
2013-08-14 10:24:00,73.6,26.9,30.25,North,0,1.8,5.4,18,0.00,,,0.00,WUHU216HW,2013-08-14 17:24:00,
2013-08-14 10:29:00,73.8,25.4,30.25,North,0,6.3,6.3,17,0.00,,,0.00,WUHU216HW,2013-08-14 17:29:00,
2013-08-14 10:34:00,73.8,25.4,30.25,NNE,23,1.8,6.3,17,0.00,,,0.00,WUHU216HW,2013-08-14 17:34:00,
2013-08-14 10:39:00,73.8,25.4,30.25,WNW,293,2.7,6.3,17,0.00,,,0.00,WUHU216HW,2013-08-14 17:39:00,
2013-08-14 10:44:00,74.2,25.8,30.25,East,90,3.4,7.2,17,0.00,,,0.00,WUHU216HW,2013-08-14 17:44:00,
2013-08-14 10:49:00,74.2,25.8,30.25,SE,135,0.4,7.2,17,0.00,,,0.00,WUHU216HW,2013-08-14 17:49:00,
2013-08-14 10:54:00,74.3,25.8,30.25,NNE,23,1.1,7.2,17,0.00,,,0.00,WUHU216HW,2013-08-14 17:54:00,
2013-08-14 10:59:00,74.5,26.0,30.25,North,0,4.0,7.2,17,0.00,,,0.00,WUHU216HW,2013-08-14 17:59:00,
2013-08-14 11:04:00,74.9,26.3,30.25,ENE,68,2.0,4.0,17,0.00,,,0.00,WUHU216HW,2013-08-14 18:04:00,
2013-08-14 11:09:00,75.1,26.4,30.25,ENE,68,1.8,6.0,17,0.00,,,0.00,WUHU216HW,2013-08-14 18:09:00,
2013-08-14 11:14:00,75.2,26.6,30.25,North,0,1.1,6.0,17,0.00,,,0.00,WUHU216HW,2013-08-14 18:14:00,
2013-08-14 11:20:00,75.6,26.8,30.25,East,90,2.0,7.8,17,0.00,,,0.00,WUHU216HW,2013-08-14 18:20:00,
2013-08-14 11:25:00,75.4,26.6,30.25,North,0,2.7,7.8,17,0.00,,,0.00,WUHU216HW,2013-08-14 18:25:00,
2013-08-14 11:30:00,75.4,26.6,30.25,ESE,113,3.4,4.5,17,0.00,,,0.00,WUHU216HW,2013-08-14 18:30:00,
2013-08-14 11:36:00,75.4,26.6,30.25,ESE,113,7.6,7.6,17,0.00,,,0.00,WUHU216HW,2013-08-14 18:36:00,
2013-08-14 11:41:00,75.6,26.8,30.25,ESE,113,5.6,7.6,17,0.00,,,0.00,WUHU216HW,2013-08-14 18:41:00,
2013-08-14 11:47:00,75.8,27.0,30.25,East,90,5.6,7.6,17,0.00,,,0.00,WUHU216HW,2013-08-14 18:47:00,
2013-08-14 11:52:00,76.1,27.3,30.25,ESE,113,1.8,6.3,17,0.00,,,0.00,WUHU216HW,2013-08-14 18:52:00,
2013-08-14 11:57:00,76.3,25.7,30.25,ENE,68,4.7,8.3,16,0.00,,,0.00,WUHU216HW,2013-08-14 18:57:00,
2013-08-14 12:02:00,76.3,25.7,30.25,North,0,0.7,8.3,16,0.00,,,0.00,WUHU216HW,2013-08-14 19:02:00,
2013-08-14 12:07:00,76.3,25.7,30.25,ENE,68,3.4,6.9,16,0.00,,,0.00,WUHU216HW,2013-08-14 19:07:00,
2013-08-14 12:13:00,76.5,27.5,30.24,WSW,248,2.7,6.3,17,0.00,,,0.00,WUHU216HW,2013-08-14 19:13:00,
2013-08-14 12:17:00,76.9,26.2,30.25,NE,45,1.8,6.3,16,0.00,,,0.00,WUHU216HW,2013-08-14 19:17:00,
2013-08-14 12:22:00,77.0,26.3,30.25,ESE,113,8.3,9.8,16,0.00,,,0.00,WUHU216HW,2013-08-14 19:22:00,
2013-08-14 12:27:00,77.2,26.5,30.25,East,90,4.0,9.8,16,0.00,,,0.00,WUHU216HW,2013-08-14 19:27:00,
2013-08-14 12:33:00,77.4,26.6,30.25,East,90,2.2,8.3,16,0.00,,,0.00,WUHU216HW,2013-08-14 19:33:00,
2013-08-14 12:38:00,77.8,26.8,30.25,NNE,23,1.3,5.8,16,0.00,,,0.00,WUHU216HW,2013-08-14 19:38:00,
2013-08-14 12:43:00,77.8,26.8,30.25,NNW,338,3.8,6.9,16,0.00,,,0.00,WUHU216HW,2013-08-14 19:43:00,
2013-08-14 12:48:00,77.8,26.8,30.25,North,0,2.9,6.9,16,0.00,,,0.00,WUHU216HW,2013-08-14 19:48:00,
2013-08-14 12:53:00,77.9,25.4,30.25,NE,45,3.1,6.0,15,0.00,,,0.00,WUHU216HW,2013-08-14 19:53:00,
2013-08-14 12:58:00,78.1,27.2,30.25,NE,45,2.5,6.0,16,0.00,,,0.00,WUHU216HW,2013-08-14 19:58:00,
2013-08-14 13:03:00,78.3,27.3,30.24,NNE,23,2.2,5.4,16,0.00,,,0.00,WUHU216HW,2013-08-14 20:03:00,
2013-08-14 13:08:00,78.8,27.7,30.24,ESE,113,2.2,5.8,16,0.00,,,0.00,WUHU216HW,2013-08-14 20:08:00,
2013-08-14 13:13:00,79.2,28.0,30.24,ESE,113,4.7,6.5,16,0.00,,,0.00,WUHU216HW,2013-08-14 20:13:00,
2013-08-14 13:18:00,79.4,26.5,30.24,NE,45,2.0,6.5,15,0.00,,,0.00,WUHU216HW,2013-08-14 20:18:00,
2013-08-14 13:23:00,79.7,26.8,30.24,East,90,3.4,4.7,15,0.00,,,0.00,WUHU216HW,2013-08-14 20:23:00,
2013-08-14 13:28:00,79.9,26.9,30.24,NE,45,2.5,4.3,15,0.00,,,0.00,WUHU216HW,2013-08-14 20:28:00,
2013-08-14 13:33:00,80.3,27.3,30.24,East,90,1.8,4.9,15,0.00,,,0.00,WUHU216HW,2013-08-14 20:33:00,
2013-08-14 13:39:00,80.6,27.5,30.24,NNE,23,2.9,4.9,15,0.00,,,0.00,WUHU216HW,2013-08-14 20:39:00,
2013-08-14 13:44:00,80.5,27.4,30.24,East,90,3.1,6.9,15,0.00,,,0.00,WUHU216HW,2013-08-14 20:44:00,
2013-08-14 13:49:00,80.3,27.3,30.24,ESE,113,3.4,7.4,15,0.00,,,0.00,WUHU216HW,2013-08-14 20:49:00,
2013-08-14 13:54:00,80.5,24.0,30.24,NNE,23,6.3,7.4,13,0.00,,,0.00,WUHU216HW,2013-08-14 20:54:00,
2013-08-14 13:59:00,80.5,27.4,30.24,North,0,3.4,6.9,15,0.00,,,0.00,WUHU216HW,2013-08-14 20:59:00,
2013-08-14 14:04:00,80.5,27.4,30.24,SE,135,0.9,6.3,15,0.00,,,0.00,WUHU216HW,2013-08-14 21:04:00,
2013-08-14 14:09:00,80.5,25.8,30.24,NE,45,1.6,4.7,14,0.00,,,0.00,WUHU216HW,2013-08-14 21:09:00,
2013-08-14 14:14:00,80.6,24.1,30.24,ENE,68,3.8,6.0,13,0.00,,,0.00,WUHU216HW,2013-08-14 21:14:00,
2013-08-14 14:19:00,80.6,27.5,30.24,NNE,23,1.6,6.9,15,0.00,,,0.00,WUHU216HW,2013-08-14 21:19:00,
2013-08-14 14:24:00,80.8,26.0,30.24,East,90,2.5,6.9,14,0.00,,,0.00,WUHU216HW,2013-08-14 21:24:00,
2013-08-14 14:29:00,81.0,27.8,30.24,ENE,68,2.7,6.9,15,0.00,,,0.00,WUHU216HW,2013-08-14 21:29:00,
2013-08-14 14:34:00,81.5,26.6,30.23,NW,315,1.3,6.9,14,0.00,,,0.00,WUHU216HW,2013-08-14 21:34:00,
2013-08-14 14:39:00,81.9,25.2,30.23,SE,135,4.0,6.7,13,0.00,,,0.00,WUHU216HW,2013-08-14 21:39:00,
2013-08-14 14:44:00,81.7,25.0,30.23,NE,45,3.6,7.2,13,0.00,,,0.00,WUHU216HW,2013-08-14 21:44:00,
2013-08-14 14:49:00,81.2,24.6,30.23,NE,45,2.2,7.2,13,0.00,,,0.00,WUHU216HW,2013-08-14 21:49:00,
2013-08-14 14:54:00,81.0,24.5,30.23,East,90,4.3,6.5,13,0.00,,,0.00,WUHU216HW,2013-08-14 21:54:00,
2013-08-14 14:59:00,81.0,24.5,30.23,ENE,68,6.5,6.5,13,0.00,,,0.00,WUHU216HW,2013-08-14 21:59:00,
2013-08-14 15:04:00,81.0,24.5,30.23,ENE,68,3.4,6.5,13,0.00,,,0.00,WUHU216HW,2013-08-14 22:04:00,
2013-08-14 15:09:00,81.0,24.5,30.23,ENE,68,4.7,7.6,13,0.00,,,0.00,WUHU216HW,2013-08-14 22:09:00,
2013-08-14 15:14:00,81.0,24.5,30.23,SSW,203,1.8,7.6,13,0.00,,,0.00,WUHU216HW,2013-08-14 22:14:00,
2013-08-14 15:19:00,81.4,24.8,30.23,NE,45,1.8,6.9,13,0.00,,,0.00,WUHU216HW,2013-08-14 22:19:00,
2013-08-14 15:24:00,81.4,24.8,30.23,North,0,4.0,5.6,13,0.00,,,0.00,WUHU216HW,2013-08-14 22:24:00,
2013-08-14 15:29:00,81.0,24.5,30.23,NNW,338,0.9,5.6,13,0.00,,,0.00,WUHU216HW,2013-08-14 22:29:00,
2013-08-14 15:34:00,81.2,24.6,30.23,NNE,23,1.6,4.5,13,0.00,,,0.00,WUHU216HW,2013-08-14 22:34:00,
2013-08-14 15:39:00,81.0,24.5,30.22,NNE,23,1.3,6.9,13,0.00,,,0.00,WUHU216HW,2013-08-14 22:39:00,
2013-08-14 15:44:00,81.0,24.5,30.23,NE,45,1.8,6.9,13,0.00,,,0.00,WUHU216HW,2013-08-14 22:44:00,
2013-08-14 15:49:00,80.8,24.3,30.23,North,0,3.6,5.4,13,0.00,,,0.00,WUHU216HW,2013-08-14 22:49:00,
2013-08-14 15:54:00,80.3,23.9,30.23,NNW,338,2.5,4.7,13,0.00,,,0.00,WUHU216HW,2013-08-14 22:54:00,
2013-08-14 15:59:00,80.3,23.9,30.22,ESE,113,1.8,4.7,13,0.00,,,0.00,WUHU216HW,2013-08-14 22:59:00,
2013-08-14 16:04:00,80.3,23.9,30.22,NE,45,2.0,6.3,13,0.00,,,0.00,WUHU216HW,2013-08-14 23:04:00,
2013-08-14 16:09:00,80.1,25.4,30.22,East,90,4.3,6.3,14,0.00,,,0.00,WUHU216HW,2013-08-14 23:09:00,
2013-08-14 16:15:00,80.1,27.1,30.22,East,90,2.0,8.3,15,0.00,,,0.00,WUHU216HW,2013-08-14 23:15:00,
2013-08-14 16:20:00,80.3,25.6,30.22,NNE,23,3.1,8.3,14,0.00,,,0.00,WUHU216HW,2013-08-14 23:20:00,
2013-08-14 16:25:00,79.9,25.2,30.22,ENE,68,1.6,6.5,14,0.00,,,0.00,WUHU216HW,2013-08-14 23:25:00,
2013-08-14 16:30:00,79.9,26.9,30.22,ESE,113,4.9,6.3,15,0.00,,,0.00,WUHU216HW,2013-08-14 23:30:00,
2013-08-14 16:35:00,80.1,25.4,30.22,North,0,2.2,6.3,14,0.00,,,0.00,WUHU216HW,2013-08-14 23:35:00,
2013-08-14 16:40:00,79.7,26.8,30.22,NE,45,5.1,6.3,15,0.00,,,0.00,WUHU216HW,2013-08-14 23:40:00,
2013-08-14 16:45:00,79.6,26.7,30.22,East,90,2.2,5.4,15,0.00,,,0.00,WUHU216HW,2013-08-14 23:45:00,
2013-08-14 16:50:00,79.6,26.7,30.21,ESE,113,1.8,5.4,15,0.00,,,0.00,WUHU216HW,2013-08-14 23:50:00,
2013-08-14 16:55:00,79.6,26.7,30.22,ESE,113,1.8,4.0,15,0.00,,,0.00,WUHU216HW,2013-08-14 23:55:00,
2013-08-14 17:00:00,79.6,26.7,30.22,ESE,113,2.5,5.4,15,0.00,,,0.00,WUHU216HW,2013-08-15 00:00:00,
2013-08-14 17:05:00,79.2,26.3,30.21,NE,45,3.6,7.2,15,0.00,,,0.00,WUHU216HW,2013-08-15 00:05:00,
2013-08-14 17:10:00,78.8,26.0,30.21,SE,135,3.1,7.2,15,0.00,,,0.00,WUHU216HW,2013-08-15 00:10:00,
2013-08-14 17:15:00,78.8,26.0,30.21,East,90,1.3,6.7,15,0.00,,,0.00,WUHU216HW,2013-08-15 00:15:00,
2013-08-14 17:20:00,78.8,26.0,30.21,NE,45,1.3,7.4,15,0.00,,,0.00,WUHU216HW,2013-08-15 00:20:00,
2013-08-14 17:25:00,78.5,25.7,30.21,ESE,113,3.6,7.4,15,0.00,,,0.00,WUHU216HW,2013-08-15 00:25:00,
2013-08-14 17:30:00,78.3,25.6,30.21,NNE,23,4.0,5.8,15,0.00,,,0.00,WUHU216HW,2013-08-15 00:30:00,
2013-08-14 17:35:00,77.9,27.0,30.21,ESE,113,1.1,4.5,16,0.00,,,0.00,WUHU216HW,2013-08-15 00:35:00,
2013-08-14 17:40:00,77.8,26.8,30.21,NNE,23,2.2,4.3,16,0.00,,,0.00,WUHU216HW,2013-08-15 00:40:00,
2013-08-14 17:45:00,77.6,26.7,30.21,NNE,23,4.0,4.5,16,0.00,,,0.00,WUHU216HW,2013-08-15 00:45:00,
2013-08-14 17:50:00,77.4,26.6,30.21,ENE,68,1.8,5.4,16,0.00,,,0.00,WUHU216HW,2013-08-15 00:50:00,
2013-08-14 17:55:00,77.2,26.5,30.21,SE,135,1.8,5.4,16,0.00,,,0.00,WUHU216HW,2013-08-15 00:55:00,
2013-08-14 18:00:00,77.2,26.5,30.21,ENE,68,1.8,4.7,16,0.00,,,0.00,WUHU216HW,2013-08-15 01:00:00,
2013-08-14 18:05:00,77.0,26.3,30.21,ENE,68,2.0,4.9,16,0.00,,,0.00,WUHU216HW,2013-08-15 01:05:00,
2013-08-14 18:10:00,77.0,26.3,30.21,East,90,1.1,4.9,16,0.00,,,0.00,WUHU216HW,2013-08-15 01:10:00,
2013-08-14 18:15:00,76.9,26.2,30.21,West,270,0.4,3.4,16,0.00,,,0.00,WUHU216HW,2013-08-15 01:15:00,
2013-08-14 18:20:00,76.9,26.2,30.21,ENE,68,1.1,2.0,16,0.00,,,0.00,WUHU216HW,2013-08-15 01:20:00,
2013-08-14 18:25:00,76.9,26.2,30.21,North,0,1.8,2.0,16,0.00,,,0.00,WUHU216HW,2013-08-15 01:25:00,
2013-08-14 18:30:00,76.5,25.9,30.21,ESE,113,1.8,2.7,16,0.00,,,0.00,WUHU216HW,2013-08-15 01:30:00,
2013-08-14 18:35:00,76.1,27.3,30.21,ENE,68,1.1,4.5,17,0.00,,,0.00,WUHU216HW,2013-08-15 01:35:00,
2013-08-14 18:40:00,76.0,27.1,30.21,ENE,68,2.0,4.5,17,0.00,,,0.00,WUHU216HW,2013-08-15 01:40:00,
2013-08-14 18:45:00,75.6,26.8,30.21,ESE,113,1.1,3.8,17,0.00,,,0.00,WUHU216HW,2013-08-15 01:45:00,
2013-08-14 18:50:00,75.4,26.6,30.21,NNW,338,1.1,3.4,17,0.00,,,0.00,WUHU216HW,2013-08-15 01:50:00,
2013-08-14 18:55:00,75.4,26.6,30.21,WNW,293,0.0,1.8,17,0.00,,,0.00,WUHU216HW,2013-08-15 01:55:00,
2013-08-14 19:00:00,75.2,26.6,30.21,East,90,0.4,2.0,17,0.00,,,0.00,WUHU216HW,2013-08-15 02:00:00,
2013-08-14 19:05:00,74.9,26.3,30.21,WSW,248,0.2,3.1,17,0.00,,,0.00,WUHU216HW,2013-08-15 02:05:00,
2013-08-14 19:10:00,74.7,27.8,30.21,NNW,338,0.7,3.1,18,0.00,,,0.00,WUHU216HW,2013-08-15 02:10:00,
2013-08-14 19:15:00,74.5,27.6,30.22,NNW,338,0.0,1.3,18,0.00,,,0.00,WUHU216HW,2013-08-15 02:15:00,
2013-08-14 19:20:00,74.3,27.5,30.21,North,0,0.0,0.7,18,0.00,,,0.00,WUHU216HW,2013-08-15 02:20:00,
2013-08-14 19:25:00,74.0,27.2,30.22,NNW,338,0.0,0.7,18,0.00,,,0.00,WUHU216HW,2013-08-15 02:25:00,
2013-08-14 19:30:00,73.6,26.9,30.22,NW,315,1.1,1.1,18,0.00,,,0.00,WUHU216HW,2013-08-15 02:30:00,
2013-08-14 19:35:00,73.1,26.5,30.22,NW,315,0.4,1.1,18,0.00,,,0.00,WUHU216HW,2013-08-15 02:35:00,
2013-08-14 19:40:00,72.5,27.6,30.22,NW,315,0.9,1.1,19,0.00,,,0.00,WUHU216HW,2013-08-15 02:40:00,
2013-08-14 19:45:00,71.8,27.0,30.22,WNW,293,0.4,1.1,19,0.00,,,0.00,WUHU216HW,2013-08-15 02:45:00,
2013-08-14 19:50:00,71.1,26.4,30.22,West,270,1.1,1.6,19,0.00,,,0.00,WUHU216HW,2013-08-15 02:50:00,
2013-08-14 19:55:00,70.4,25.8,30.22,West,270,1.1,1.6,19,0.00,,,0.00,WUHU216HW,2013-08-15 02:55:00,
2013-08-14 20:00:00,69.8,25.4,30.22,West,270,1.6,1.8,19,0.00,,,0.00,WUHU216HW,2013-08-15 03:00:00,
2013-08-14 20:05:00,69.3,27.5,30.22,West,270,1.1,1.8,21,0.00,,,0.00,WUHU216HW,2013-08-15 03:05:00,
2013-08-14 20:10:00,68.6,27.0,30.22,West,270,1.1,1.6,21,0.00,,,0.00,WUHU216HW,2013-08-15 03:10:00,
2013-08-14 20:15:00,68.0,26.6,30.22,West,270,1.1,1.6,21,0.00,,,0.00,WUHU216HW,2013-08-15 03:15:00,
2013-08-14 20:20:00,67.7,26.2,30.23,WSW,248,1.6,1.6,21,0.00,,,0.00,WUHU216HW,2013-08-15 03:20:00,
2013-08-14 20:25:00,67.1,25.7,30.23,WSW,248,1.8,1.8,21,0.00,,,0.00,WUHU216HW,2013-08-15 03:25:00,
2013-08-14 20:30:00,66.6,26.3,30.23,WSW,248,1.1,2.5,22,0.00,,,0.00,WUHU216HW,2013-08-15 03:30:00,
2013-08-14 20:35:00,65.9,25.7,30.23,West,270,1.8,2.5,22,0.00,,,0.00,WUHU216HW,2013-08-15 03:35:00,
2013-08-14 20:40:00,65.2,25.1,30.23,WSW,248,1.8,1.8,22,0.00,,,0.00,WUHU216HW,2013-08-15 03:40:00,
2013-08-14 20:45:00,64.6,25.7,30.23,WSW,248,1.3,2.5,23,0.00,,,0.00,WUHU216HW,2013-08-15 03:45:00,
2013-08-14 20:50:00,64.3,25.3,30.23,WSW,248,2.9,2.9,23,0.00,,,0.00,WUHU216HW,2013-08-15 03:50:00,
2013-08-14 20:55:00,63.7,24.8,30.23,WSW,248,2.0,2.9,23,0.00,,,0.00,WUHU216HW,2013-08-15 03:55:00,
2013-08-14 21:00:00,63.4,24.6,30.23,WSW,248,1.1,2.9,23,0.00,,,0.00,WUHU216HW,2013-08-15 04:00:00,
2013-08-14 21:01:00,63.2,24.4,30.24,WSW,248,1.3,2.9,23,0.00,,,0.00,WUHU216HW,2013-08-15 04:01:00,
2013-08-14 21:06:00,62.8,25.1,30.24,WSW,248,1.1,1.8,24,0.00,,,0.00,WUHU216HW,2013-08-15 04:06:00,
2013-08-14 21:11:00,62.6,24.9,30.24,WSW,248,1.1,1.8,24,0.00,,,0.00,WUHU216HW,2013-08-15 04:11:00,
2013-08-14 21:16:00,62.3,24.7,30.24,WSW,248,1.6,1.6,24,0.00,,,0.00,WUHU216HW,2013-08-15 04:16:00,
2013-08-14 21:21:00,61.9,24.3,30.24,WSW,248,1.1,1.8,24,0.00,,,0.00,WUHU216HW,2013-08-15 04:21:00,
2013-08-14 21:26:00,61.6,24.0,30.24,WSW,248,1.3,2.2,24,0.00,,,0.00,WUHU216HW,2013-08-15 04:26:00,
2013-08-14 21:31:00,61.4,23.9,30.24,WSW,248,1.1,2.2,24,0.00,,,0.00,WUHU216HW,2013-08-15 04:31:00,
2013-08-14 21:36:00,61.2,23.8,30.24,WSW,248,1.1,2.0,24,0.00,,,0.00,WUHU216HW,2013-08-15 04:36:00,
2013-08-14 21:41:00,60.8,24.4,30.24,West,270,1.1,1.8,25,0.00,,,0.00,WUHU216HW,2013-08-15 04:41:00,
2013-08-14 21:46:00,60.5,24.1,30.24,West,270,1.1,1.6,25,0.00,,,0.00,WUHU216HW,2013-08-15 04:46:00,
2013-08-14 21:51:00,60.1,23.8,30.24,WSW,248,1.6,1.8,25,0.00,,,0.00,WUHU216HW,2013-08-15 04:51:00,
2013-08-14 21:56:00,59.9,23.7,30.24,WSW,248,1.6,2.2,25,0.00,,,0.00,WUHU216HW,2013-08-15 04:56:00,
2013-08-14 22:01:00,59.8,24.5,30.24,WSW,248,1.8,2.2,26,0.00,,,0.00,WUHU216HW,2013-08-15 05:01:00,
2013-08-14 22:06:00,59.6,25.3,30.24,WSW,248,1.8,2.5,27,0.00,,,0.00,WUHU216HW,2013-08-15 05:06:00,
2013-08-14 22:11:00,59.4,25.1,30.24,WSW,248,1.8,2.5,27,0.00,,,0.00,WUHU216HW,2013-08-15 05:11:00,
2013-08-14 22:16:00,59.2,24.9,30.24,WSW,248,2.5,2.5,27,0.00,,,0.00,WUHU216HW,2013-08-15 05:16:00,
2013-08-14 22:21:00,58.9,24.7,30.24,WSW,248,1.8,2.5,27,0.00,,,0.00,WUHU216HW,2013-08-15 05:21:00,
2013-08-14 22:26:00,58.7,25.5,30.24,WSW,248,1.3,2.2,28,0.00,,,0.00,WUHU216HW,2013-08-15 05:26:00,
2013-08-14 22:31:00,58.5,25.3,30.24,WSW,248,1.3,2.2,28,0.00,,,0.00,WUHU216HW,2013-08-15 05:31:00,
2013-08-14 22:36:00,58.3,25.1,30.24,WSW,248,1.3,1.8,28,0.00,,,0.00,WUHU216HW,2013-08-15 05:36:00,
2013-08-14 22:41:00,58.1,25.0,30.24,WSW,248,2.5,3.4,28,0.00,,,0.00,WUHU216HW,2013-08-15 05:41:00,
2013-08-14 22:46:00,58.0,25.8,30.24,WSW,248,1.1,3.4,29,0.00,,,0.00,WUHU216HW,2013-08-15 05:46:00,
2013-08-14 22:51:00,58.0,25.8,30.24,WSW,248,0.0,2.5,29,0.00,,,0.00,WUHU216HW,2013-08-15 05:51:00,
2013-08-14 22:56:00,57.8,25.7,30.24,West,270,1.8,1.8,29,0.00,,,0.00,WUHU216HW,2013-08-15 05:56:00,
2013-08-14 23:01:00,57.8,25.7,30.24,West,270,1.1,1.8,29,0.00,,,0.00,WUHU216HW,2013-08-15 06:01:00,
2013-08-14 23:06:00,57.6,25.5,30.24,West,270,0.0,1.8,29,0.00,,,0.00,WUHU216HW,2013-08-15 06:06:00,
2013-08-14 23:11:00,57.6,25.5,30.24,West,270,0.0,1.3,29,0.00,,,0.00,WUHU216HW,2013-08-15 06:11:00,
2013-08-14 23:16:00,57.6,25.5,30.24,West,270,1.1,1.1,29,0.00,,,0.00,WUHU216HW,2013-08-15 06:16:00,
2013-08-14 23:21:00,57.6,25.5,30.24,WNW,293,0.9,1.1,29,0.00,,,0.00,WUHU216HW,2013-08-15 06:21:00,
2013-08-14 23:26:00,57.6,25.5,30.24,WNW,293,1.1,1.1,29,0.00,,,0.00,WUHU216HW,2013-08-15 06:26:00,
2013-08-14 23:31:00,57.6,25.5,30.24,West,270,1.1,2.0,29,0.00,,,0.00,WUHU216HW,2013-08-15 06:31:00,
2013-08-14 23:36:00,57.4,25.3,30.24,West,270,1.1,2.0,29,0.00,,,0.00,WUHU216HW,2013-08-15 06:36:00,
2013-08-14 23:41:00,57.4,26.3,30.24,WSW,248,1.8,2.5,30,0.00,,,0.00,WUHU216HW,2013-08-15 06:41:00,
2013-08-14 23:46:00,57.2,26.1,30.24,WSW,248,1.1,2.5,30,0.00,,,0.00,WUHU216HW,2013-08-15 06:46:00,
2013-08-14 23:51:00,57.1,25.9,30.24,West,270,1.8,1.8,30,0.00,,,0.00,WUHU216HW,2013-08-15 06:51:00,
2013-08-14 23:56:00,56.9,25.7,30.24,West,270,1.1,1.8,30,0.00,,,0.00,WUHU216HW,2013-08-15 06:56:00,